Powrót do katalogu

USA 477

AktywnyMilitariaVLEO
NORAD 62546·PAYLOAD·🇺🇸 United States

Wystrzelony Jan 10, 2025 z Vandenberg Space Force Base

Loading…

Następne Przeloty (najbliższe 24 godziny)

TLE

NieaktualneSource: Mike McCants

Epoka: Aug 19, 2026, 21:09 UTC

1 62546U 25005Q   26231.88183187 0.00000000  00000-0  00000-0 0    06
2 62546  70.0180 257.1678 0003000 165.0999 194.9001 14.96713538    00

Śledź USA 477 w czasie rzeczywistym z AllMySat

Download on the App Store